Current Version              Previous Version:    01  02  03  04  05  06  07  08  09  10  11  12  13  14  15  16  17  18  19  20  21  22  23  24  25  26  27  28  29  30  
   31  32  33  34  35  36  37  38  39  40  41  42  43  44  45  46  47  48  49  50  51  52  53  54  55  56  57  58  59  60  

[Printable]
728
ASUS44 KFWD 300115
RWRTX
NORTH TEXAS HOURLY WEATHER ROUNDUP
NATIONAL WEATHER SERVICE FORT WORTH TX
800 PM CDT TUE JUL 29 2014

NOTE: "FAIR" INDICATES FEW OR NO CLOUDS BELOW 12,000 FEET WITH NO
SIGNIFICANT WEATHER AND/OR OBSTRUCTIONS TO VISIBILITY.

TXZ118-119-300200-
DALLAS/FORT WORTH METROPLEX

CITY           SKY/WX    TMP DP  RH WIND       PRES   REMARKS
DFW AIRPORT    CLOUDY    82  59  45 CALM      30.06F
DALLAS LOVE    CLOUDY    82  64  54 CALM      30.06F
FTW MEACHAM    CLOUDY    81  62  52 E8        30.06F
DAL-EXECUTIVE  CLOUDY    79  65  62 CALM      30.06F
FTW-ALLIANCE   CLOUDY    77  62  59 CALM      30.06F
FTW-NAS-JRB    CLOUDY    83  61  47 E6        30.10F
FTW-SPINKS     CLOUDY    79  65  63 E3        30.08F HAZE
ARLINGTON      CLOUDY    81  56  42 E5        30.06F
GRAND PRAIRIE  CLEAR     79  61  53 CALM      30.08F
ADDISON        MOCLDY    82  59  44 CALM      30.08
MESQUITE       CLEAR     82  64  54 CALM      30.06F
LANCASTER      CLOUDY    80  64  56 CALM      30.07F
$$

TXZ091>094-102>105-117-120-121-131>134-300200-
NORTH CENTRAL TEXAS

CITY           SKY/WX    TMP DP  RH WIND       PRES   REMARKS
SHRMAN/DENISON MOCLDY    86  59  40 SW6       30.06F
GAINESVILLE    CLOUDY    80  58  46 S3        30.09F
BOWIE          MOCLDY    74  68  80 CALM      30.08F
BRIDGEPORT     MOCLDY    77  64  65 E3        30.09F
DECATUR        MOCLDY    75  64  70 E3        30.09S
DENTON         CLOUDY    77  65  66 CALM      30.07F
MCKINNEY       MOCLDY    85  63  47 SW6       30.05F
GREENVILLE     PTCLDY    82  64  54 CALM      30.06S
ROCKWALL       MOCLDY    83  68  59 CALM      30.05F
TERRELL        CLOUDY    86  62  44 CALM      30.06F
WAXAHACHIE     CLOUDY    78  57  48 NE5       30.08F
CLEBURNE       MOCLDY    82  61  47 E6        30.08F
GRANBURY       MOCLDY    85  58  41 E5        30.07S
$$

TXZ083>090-098>101-113>116-127>130-139>142-154-155-300200-
WESTERN NORTH TEXAS

CITY           SKY/WX    TMP DP  RH WIND       PRES   REMARKS
WICHITA FALLS  MOCLDY    77  63  61 SE5       30.07F
WF-KICKAPOO    MOCLDY    78  63  60 E3        30.08F
VERNON         CLOUDY    78  64  60 SE6       30.08F
ABILENE        TSTM      72  71  97 E7        30.10F
ABILENE-DYESS  CLOUDY    73  70  88 SE9       30.09R
BRECKENRIDGE   CLOUDY    87  55  32 E9        30.07R
GRAHAM         MOCLDY    82  63  52 E7        30.05F
MINERAL WELLS  MOCLDY    81  66  60 SE3       30.05F
STEPHENVILLE   MOCLDY    84  56  38 E10       30.10F
COMANCHE       PTCLDY    84  54  35 E9        30.08R
BROWNWOOD      PTCLDY    84  64  51 E10       30.06R
COLEMAN        MOCLDY    86  64  47 E14G20    30.08R
BRADY          CLEAR     82  66  57 E14       30.06R
$$

TXZ143>147-156>162-174-175-300200-
CENTRAL TEXAS

CITY           SKY/WX    TMP DP  RH WIND       PRES   REMARKS
WACO           CLEAR     84  55  36 E9        30.04F
WACO-TSTC      CLEAR     82  54  36 E5        30.05F
WACO-MCGREGOR  CLEAR     88  55  33 E8        30.05F
HILLSBORO      MOCLDY    80  61  51 NE6       30.06F
CORSICANA      CLOUDY    82  69  64 CALM      30.07S
MEXIA          MOCLDY    81  71  72 CALM      30.05F
HEARNE         CLEAR    N/A N/A N/A NE5       30.04S
CAMERON        PTCLDY    86  70  58 E5        30.03F HX  91
TEMPLE         PTCLDY    86  64  48 E9        30.05S
KILLEEN        MOCLDY    86  66  51 E9        30.05R
KILLEEN-SKYLRK PTCLDY    84  64  51 E9        30.04S
FORT HOOD      PTCLDY    86  68  54 E6        30.05S
GATESVILLE     PTCLDY    88  61  40 SE3       30.07R
HAMILTON       PTCLDY    85  55  34 E8G20     30.08R
LAMPASAS       CLOUDY    81  76  86 SE3       30.05S
$$

TXZ095>097-106>112-122>126-135>138-148>153-164>167-300200-
EAST TEXAS

CITY           SKY/WX    TMP DP  RH WIND       PRES   REMARKS
PARIS          PTCLDY    84  63  48 NE3       30.06F
SULPHUR SPRNGS PTCLDY    85  64  49 SE3       30.08S
CLARKSVILLE    PTCLDY    86  65  50 CALM      30.06S
MOUNT PLEASANT PTCLDY    84  68  57 CALM      30.07S
GILMER         MOCLDY    84  68  58 NE3       30.08S
MINEOLA        MOCLDY    84  68  58 CALM      30.07S
TYLER          MOCLDY    85  69  58 W3        30.06S
LONGVIEW       PTCLDY    86  67  52 NE5       30.05S
MARSHALL       PTCLDY    83  70  64 CALM      30.08S
ATHENS         CLOUDY    79  72  78 CALM      30.05F
JACKSONVILLE   CLOUDY    84  71  65 CALM      30.08S
HENDERSON      PTCLDY    80  71  74 CALM      30.07S
NACOGDOCHES    MOCLDY    82  73  74 CALM      30.05S
LUFKIN         MOCLDY    84  73  69 CALM      30.04F HX  90
$$

SUPPLEMENTAL OBSERVATIONS (CENTRAL)

CITY           SKY/WX    TMP DP  RH WIND       PRES   REMARKS
LAKE TEXOMA      N/A     88  64  45 CALM        N/A
CADDO GRASSLND   N/A     82  66  57 E2          N/A
ATHENS           N/A     82  72  69 CALM        N/A
PALESTINE        N/A     81  75  83 CALM        N/A
LAKE LIMESTONE   N/A     81  73  78 NE5         N/A
MCGREGOR         N/A     86  61  42 E5          N/A
TEMPLE           N/A     84  66  54 E8          N/A
$$

SUPPLEMENTAL OBSERVATIONS (WEST)

CITY           SKY/WX    TMP DP  RH WIND       PRES   REMARKS
MILLERS CREEK    N/A     84  59  42 SE10        N/A
POSSUM KINGDOM   N/A     82  61  47 E5          N/A
LBJ GRASSLAND    N/A     75  64  69 E2          N/A
GRANBURY         N/A     84  57  39 E5          N/A
HAMBY            N/A     72  68  88 SE6G37      N/A
IVIE RESERVOIR   N/A     84  64  51 E14G26      N/A
COLORADO BEND    N/A     82  64  54 E10G18      N/A
$$

SUPPLEMENTAL OBSERVATIONS (EAST)

CITY           SKY/WX    TMP DP  RH WIND       PRES   REMARKS
TEXARKANA        N/A     81  68  65 CALM        N/A
LINDEN           N/A     82  64  54 E1          N/A
CADDO LAKE       N/A     81  68  65 NE1         N/A
LUFKIN           N/A     82  75  78 MISG        N/A
$$

SUPPLEMENTAL OBSERVATIONS ARE A COLLECTION OF AUTOMATED INSTRUMENTS
THAT ARE MAINTAINED BY A VARIETY OF FEDERAL AND STATE AGENCIES.
CERTAIN ELEMENTS...SUCH AS HUMIDITY VALUES AND SUSTAINED WIND
SPEEDS...MAY BE APPROXIMATED.